Voltar ao catálogo

STARLINK-11493

AtivoComunicaçõesVLEO
NORAD 62410·PAYLOAD·🇺🇸 United States

Lançado Dec 23, 2024 de Cape Canaveral Space Force Station

Loading…

Próximas Passagens (próximas 24 horas)

TLE

AtualizadoSource: CelesTrak SupGP

Época: Sep 14, 2026, 22:22 UTC

1 62410C 24249B   26257.93243056 -.00015664  00000+0 -12170-3 0  2572
2 62410  43.0004 107.3506 0001555 278.6490 285.5563 15.70838580    10

Acompanhe STARLINK-11493 em tempo real com AllMySat

Download on the App Store